Flag for Germany Weather past 2 weeks in Wismar, Mecklenburg-Western Pomerania, Germany

Now
35 °F

Fog.


Feels Like: 32 °F
Forecast: 34 / 40 °F
Wind: 3 mph from West

Location: Schwerin

Current Time: Jan 28, 2015 at 12:44:22 AM

Latest Report: Jan 28, 2015 at 12:00 AM


Visibility: 2 mi

Pressure: 30.02 "Hg

Humidity: 100%

Dew point: 35 °F

Location of WismarLocation

Historic Weather in Wismar — Graph

°F

Wismar temperature yesterday

Maximum temperature yesterday: 42 °F (at 2:00 PM)
Minimum temperature yesterday: 34 °F (at 9:00 PM)
Average temperature yesterday: 38 °F

Past Weeks' High & Low Weather Summary

 TemperatureHumidityPressure
High48 °F (Jan 13, 12:00 PM)100% (Jan 25, 7:00 PM)30.33 "Hg (Jan 25, 7:00 PM)
Low27 °F (Jan 23, 11:00 PM)67% (Jan 27, 3:00 PM)29.38 "Hg (Jan 15, 7:00 PM)
Average36 °F89%29.89 "Hg
* Reported Midnight between Jan 12 and Jan 13 — Midnight between Jan 27 and Jan 28, Wismar, Weather by CustomWeather, © 2014

Note: Actual official high and low records may vary slightly from our data, if they occured in-between our weather recording intervals... More about our weather records

Advertising

Wismar weather history for previous 24 hours

 ConditionsComfort  
Time TempWeatherWind HumidityBarometerVisibility
12:00 AM
Jan 28
35 °FFog.3 mph100%30.02 "Hg2 mi
11:00 PM
Jan 27
35 °FFog.5 mph97%30.02 "Hg4 mi
9:00 PM34 °FClear.5 mph90%30.03 "Hg12 mi
8:00 PM36 °FPassing clouds.5 mph85%30.03 "Hg14 mi
7:00 PM37 °FPassing clouds.6 mph83%30.02 "Hg16 mi
6:00 PM37 °FClear.5 mph82%30.01 "Hg17 mi
5:00 PM39 °FPassing clouds.5 mph76%30.00 "Hg19 mi
3:00 PM42 °FScattered clouds.7 mph67%29.97 "Hg15 mi
2:00 PM42 °FScattered clouds.7 mph69%29.95 "Hg12 mi
1:00 PM40 °FPartly sunny.7 mph74%29.95 "Hg17 mi
12:00 PM40 °FOvercast.7 mph79%29.94 "Hg14 mi
11:00 AM39 °FOvercast.7 mph83%29.94 "Hg12 mi
9:00 AM37 °FScattered clouds.8 mph86%29.91 "Hg14 mi
8:00 AM37 °FOvercast.7 mph86%29.89 "Hg12 mi
7:00 AM37 °FOvercast.7 mph90%29.89 "Hg12 mi
6:00 AM37 °FOvercast.7 mph90%29.88 "Hg12 mi
5:00 AM38 °FPassing clouds.7 mph91%29.87 "Hg17 mi
3:00 AM38 °FLow clouds.6 mph93%29.86 "Hg19 mi
2:00 AM37 °FLow clouds.6 mph93%29.85 "Hg19 mi
1:00 AM38 °FOvercast.8 mph93%29.85 "Hg14 mi
12:00 AM38 °FLight freezing rain. Overcast.6 mph93%29.84 "Hg9 mi
Weather by CustomWeather, © 2014

See weather overviewHow to use our weather pages